DW8828 Weather Reports


time (UTC)temp
F
wind
direction
speed
knots
gust
knots
rain 1hr
in
rain 24hr
in
rain mn
in
humidity
%
barometer
mb
20240613051408 80 165 0.9 2.6 0.00 0.01 0.00 69 1012.9
20240613050906 80 165 0.9 1.7 0.00 0.01 0.00 69 1013.0
20240613050642 80 165 0.9 2.6 0.00 0.01 0.00 69 1013.0
20240613045904 81 165 0.9 2.6 0.00 0.01 0.01 69 1013.0
20240613045649 81 165 0.9 1.7 0.00 0.01 0.01 68 1012.9
20240613044906 81 165 0.9 2.6 0.00 0.01 0.01 68 1012.8
20240613044651 81 165 1.7 2.6 0.00 0.01 0.01 68 1012.9
20240613044155 81 165 0.9 2.6 0.00 0.01 0.01 68 1012.9
20240613043403 81 165 1.7 2.6 0.00 0.01 0.01 67 1012.9
20240613042906 82 149 0.9 1.7 0.00 0.01 0.01 67 1012.8
20240613042403 82 149 0.9 2.6 0.00 0.01 0.01 67 1012.8
20240613041905 82 149 0.9 2.6 0.00 0.01 0.01 66 1012.8
20240613041404 82 148 0.9 2.6 0.00 0.01 0.01 66 1012.8
20240613040904 82 148 1.7 2.6 0.00 0.01 0.01 66 1012.8
20240613040404 82 155 1.7 2.6 0.00 0.01 0.01 65 1012.9
20240613035903 82 171 0.9 2.6 0.00 0.01 0.01 65 1012.8
20240613035404 83 165 0.9 2.6 0.00 0.01 0.01 65 1012.8
20240613034904 83 169 1.7 4.3 0.00 0.01 0.01 64 1012.8
20240613034405 83 178 1.7 5.2 0.00 0.01 0.01 64 1012.8
20240613033905 83 155 0.9 5.2 0.00 0.01 0.01 64 1012.7
20240613033404 83 179 2.6 4.3 0.00 0.01 0.01 64 1012.6
20240613032904 83 154 1.7 3.5 0.00 0.01 0.01 63 1012.6
20240613032718 83 169 1.7 4.3 0.00 0.01 0.01 63 1012.5
20240613031906 83 185 2.6 6.1 0.00 0.01 0.01 63 1012.5
20240613031405 83 159 3.5 6.1 0.00 0.01 0.01 62 1012.5
20240613031224 83 161 2.6 5.2 0.00 0.01 0.01 62 1012.3
20240613030403 84 121 2.6 6.1 0.00 0.01 0.01 62 1012.3
20240613025903 84 200 1.7 6.1 0.00 0.01 0.01 62 1012.2
20240613025401 84 162 2.6 5.2 0.00 0.01 0.01 61 1012.2
20240613025213 84 154 1.7 3.5 0.00 0.01 0.01 61 1012.1
20240613024400 84 165 1.7 4.3 0.00 0.01 0.01 61 1012.0
20240613023901 84 175 1.7 4.3 0.00 0.01 0.01 60 1011.9
20240613023652 84 144 0.9 6.1 0.00 0.01 0.01 60 1012.0
20240613022857 85 142 1.7 6.1 0.00 0.01 0.01 60 1011.9
20240613022358 85 180 2.6 5.2 0.00 0.01 0.01 60 1011.9
20240613022214 85 175 1.7 6.1 0.00 0.01 0.01 60 1011.7
20240613021658 85 152 3.5 9.6 0.00 0.01 0.01 59 1011.7
20240613020855 85 155 3.5 9.6 0.00 0.01 0.01 59 1011.6
20240613020352 85 172 3.5 7.8 0.00 0.01 0.01 59 1011.6
20240613015854 85 154 2.6 5.2 0.00 0.01 0.01 59 1011.6
20240613015658 85 176 2.6 7.8 0.00 0.01 0.01 58 1011.6
20240613014848 86 128 2.6 7.8 0.00 0.01 0.01 58 1011.6
20240613014348 86 161 2.6 6.1 0.00 0.01 0.01 58 1011.5
20240613013848 86 159 2.6 9.6 0.00 0.01 0.01 58 1011.5
20240613013347 86 135 3.5 9.6 0.00 0.01 0.01 57 1011.5
20240613012838 86 172 3.5 7.8 0.00 0.01 0.01 57 1011.5
20240613012339 86 183 3.5 6.1 0.00 0.01 0.01 57 1011.5
20240613011840 87 152 3.5 8.7 0.00 0.01 0.01 57 1011.5
20240613011339 87 175 5.2 8.7 0.00 0.01 0.01 57 1011.4
20240613010837 87 186 2.6 9.6 0.00 0.01 0.01 56 1011.5
20240613010336 87 235 2.6 9.6 0.00 0.01 0.01 56 1011.4
20240613005837 87 69 3.5 6.1 0.00 0.01 0.01 56 1011.4
20240613005337 87 111 1.7 6.1 0.00 0.01 0.01 56 1011.4
20240613004835 88 189 3.5 6.1 0.00 0.01 0.01 55 1011.4
20240613004332 88 151 3.5 8.7 0.00 0.01 0.01 55 1011.4
20240613004147 88 213 2.6 8.7 0.00 0.01 0.01 55 1011.4
20240613003331 88 82 3.5 6.1 0.00 0.01 0.01 55 1011.4
20240613002832 88 148 2.6 5.2 0.00 0.01 0.01 54 1011.4
20240613002332 88 125 1.7 7.8 0.00 0.01 0.01 55 1011.4
20240613001830 88 121 2.6 7.8 0.00 0.01 0.01 55 1011.4
20240613001331 88 134 3.5 5.2 0.00 0.01 0.01 54 1011.3
20240613000832 88 162 2.6 6.1 0.00 0.01 0.01 54 1011.4
20240613000333 89 137 3.5 6.1 0.00 0.01 0.01 53 1011.4
20240612235831 89 155 1.7 6.1 0.00 0.01 0.01 53 1011.4
20240612235649 89 165 3.5 8.7 0.00 0.01 0.01 53 1011.4
20240612234832 89 106 3.5 8.7 0.00 0.01 0.01 53 1011.4
20240612234331 89 109 5.2 7.8 0.00 0.01 0.01 53 1011.4
20240612233831 89 113 3.5 12.2 0.00 0.01 0.01 52 1011.3
20240612233332 89 83 2.6 12.2 0.00 0.01 0.01 52 1011.4
20240612232833 90 69 2.6 9.6 0.00 0.01 0.01 53 1011.3
20240612232331 90 63 2.6 7.8 0.00 0.01 0.01 52 1011.3
20240612231832 90 52 1.7 7.8 0.00 0.01 0.01 52 1011.4
20240612231332 90 82 1.7 5.2 0.00 0.01 0.01 52 1011.5
20240612231144 90 44 3.5 7.8 0.00 0.01 0.01 51 1011.4
20240612230333 90 100 2.6 7.8 0.00 0.01 0.01 52 1011.5
20240612225831 90 117 3.5 6.1 0.00 0.01 0.01 51 1011.6
20240612225331 90 71 2.6 6.1 0.00 0.01 0.01 51 1011.6
20240612224832 90 99 1.7 7.8 0.00 0.01 0.01 51 1011.7
20240612224653 90 125 3.5 7.8 0.00 0.01 0.01 51 1011.8
20240612223831 90 120 3.5 6.1 0.00 0.01 0.01 50 1011.9
20240612223331 90 66 3.5 6.1 0.00 0.01 0.01 51 1011.9
20240612222832 90 128 2.6 6.1 0.00 0.01 0.01 50 1012.0
20240612222331 91 65 3.5 6.1 0.00 0.01 0.01 51 1012.0
20240612221830 91 34 2.6 4.3 0.00 0.01 0.01 51 1012.1
20240612221332 91 142 1.7 4.3 0.00 0.01 0.01 51 1012.1
20240612220825 90 34 1.7 5.2 0.00 0.01 0.01 52 1012.2
20240612220628 90 72 2.6 5.2 0.00 0.01 0.01 52 1012.2
20240612215821 90 32 2.6 5.2 0.00 0.01 0.01 52 1012.3
20240612215324 90 44 2.6 6.1 0.00 0.01 0.01 52 1012.2
20240612214823 90 114 3.5 6.1 0.00 0.01 0.01 52 1012.3
20240612214317 90 62 3.5 6.1 0.00 0.01 0.01 52 1012.4
20240612214125 90 38 2.6 6.1 0.00 0.01 0.01 51 1012.4
20240612213318 90 24 3.5 6.1 0.00 0.01 0.01 50 1012.4
20240612212817 91 49 2.6 4.3 0.00 0.01 0.01 52 1012.4
20240612212318 90 97 1.7 4.3 0.00 0.01 0.01 52 1012.6
20240612212142 90 107 2.6 6.1 0.00 0.01 0.01 52 1012.6
20240612211316 90 82 1.7 6.1 0.00 0.01 0.01 52 1012.6
20240612210814 90 56 2.6 5.2 0.00 0.01 0.01 51 1012.6
20240612210314 90 92 3.5 6.1 0.00 0.01 0.01 52 1012.7
20240612205811 89 72 1.7 6.1 0.00 0.01 0.01 53 1012.7
20240612205307 89 76 3.5 6.1 0.00 0.01 0.01 54 1012.8
20240612204804 89 80 4.3 8.7 0.00 0.01 0.01 54 1012.9
20240612204304 89 42 3.5 8.7 0.00 0.01 0.01 54 1012.7
20240612203805 89 63 4.3 7.8 0.00 0.01 0.01 53 1012.8
20240612203303 89 24 2.6 6.1 0.00 0.01 0.01 55 1013.0
20240612202804 89 21 3.5 7.8 0.00 0.01 0.01 54 1012.9
20240612202306 89 37 3.5 7.8 0.00 0.02 0.01 54 1013.0
20240612201804 89 31 2.6 6.1 0.00 0.03 0.01 55 1013.2
20240612201622 89 23 3.5 6.1 0.00 0.03 0.01 54 1013.1
20240612201218 89 334 2.6 6.1 0.00 0.11 0.01 55 1013.2
20240612200116 88 56 4.3 7.8 0.00 0.17 0.01 55 1013.3
20240612195306 88 48 4.3 6.1 0.00 0.17 0.01 55 1013.4
20240612194805 88 0 3.5 6.1 0.00 0.17 0.01 56 1013.4
20240612194305 88 28 3.5 6.1 0.00 0.17 0.01 55 1013.5
20240612193803 89 21 3.5 6.1 0.00 0.17 0.01 56 1013.5
20240612193303 89 7 3.5 6.1 0.00 0.17 0.01 55 1013.6
20240612192804 88 52 3.5 6.1 0.00 0.17 0.01 55 1013.7
20240612192306 89 32 2.6 5.2 0.00 0.17 0.01 55 1013.7
20240612192133 88 52 3.5 6.1 0.00 0.17 0.01 55 1013.8
20240612191626 88 38 4.3 6.1 0.00 0.17 0.01 55 1013.8
20240612190803 88 55 1.7 7.8 0.00 0.17 0.01 55 1013.8
20240612190306 88 28 3.5 7.8 0.00 0.17 0.01 55 1013.9
20240612185803 88 39 1.7 6.1 0.00 0.17 0.01 57 1014.0
20240612185306 88 61 2.6 7.8 0.00 0.17 0.01 57 1014.0
20240612184803 87 80 3.5 7.8 0.00 0.17 0.01 57 1014.1
20240612184305 87 34 3.5 8.7 0.00 0.17 0.01 58 1014.1
20240612183804 87 55 2.6 8.7 0.00 0.17 0.01 59 1014.1
20240612183618 86 16 3.5 8.7 0.00 0.17 0.01 59 1014.2
20240612182803 86 30 3.5 6.1 0.00 0.17 0.01 59 1014.3
20240612182306 86 28 4.3 6.1 0.00 0.17 0.01 58 1014.4
20240612181804 86 30 3.5 6.1 0.00 0.17 0.01 58 1014.4
20240612181309 86 28 3.5 6.1 0.00 0.17 0.01 59 1014.4
20240612180803 86 20 4.3 6.1 0.00 0.17 0.01 58 1014.4
20240612180303 86 21 2.6 6.1 0.00 0.17 0.01 58 1014.5
20240612175806 86 17 3.5 6.1 0.00 0.17 0.01 59 1014.6
20240612175305 85 0 3.5 7.8 0.00 0.17 0.01 59 1014.6
20240612174803 85 13 4.3 7.8 0.00 0.17 0.01 60 1014.7
20240612174303 85 30 3.5 6.1 0.00 0.17 0.01 59 1014.7
20240612174116 84 32 3.5 6.1 0.00 0.17 0.01 60 1014.8
20240612173304 84 34 4.3 6.1 0.00 0.17 0.01 60 1014.7
20240612173141 84 31 4.3 6.1 0.00 0.17 0.01 60 1014.8
20240612172305 84 41 3.5 6.1 0.00 0.17 0.01 61 1014.9
20240612172128 84 21 3.5 4.3 0.00 0.17 0.01 60 1014.9
20240612171257 84 24 3.5 5.2 0.00 0.17 0.01 59 1014.9
20240612170756 84 21 4.3 6.1 0.00 0.17 0.01 59 1014.9
20240612170256 84 30 3.5 6.1 0.00 0.17 0.01 59 1014.9
20240612170134 85 41 4.3 6.1 0.00 0.17 0.01 57 1014.9
20240612165259 86 48 3.5 5.2 0.00 0.17 0.01 56 1014.9
20240612164756 87 52 2.6 5.2 0.00 0.17 0.01 56 1014.9
20240612164256 87 31 2.6 4.3 0.00 0.17 0.01 54 1014.9
20240612163756 87 83 2.6 5.2 0.00 0.17 0.01 54 1014.8
20240612163257 87 141 2.6 5.2 0.00 0.17 0.01 54 1015.0
20240612163108 88 152 1.7 4.3 0.00 0.17 0.01 53 1014.9
20240612162256 87 214 1.7 4.3 0.00 0.17 0.01 54 1015.0
20240612161755 87 196 0.9 4.3 0.00 0.17 0.01 55 1014.9
20240612161255 86 92 1.7 3.5 0.00 0.17 0.01 55 1014.9
20240612160754 86 90 2.6 3.5 0.00 0.17 0.01 55 1014.9
20240612160258 86 243 2.6 4.3 0.00 0.17 0.01 56 1014.9
20240612155755 86 204 1.7 6.1 0.00 0.17 0.01 56 1015.0
20240612155257 86 193 2.6 6.1 0.00 0.17 0.01 56 1015.0
20240612154756 86 148 1.7 3.5 0.00 0.17 0.01 56 1014.9
20240612154254 85 230 0.9 6.1 0.00 0.17 0.01 58 1015.0
20240612153755 85 219 1.7 6.1 0.00 0.17 0.01 57 1014.9
20240612153621 85 188 0.9 4.3 0.00 0.17 0.01 59 1015.0
20240612153111 84 135 2.6 5.2 0.00 0.17 0.01 58 1015.0
20240612152254 84 113 1.7 5.2 0.00 0.17 0.01 59 1015.0
20240612152127 84 178 3.5 5.2 0.00 0.17 0.01 59 1015.0
20240612151300 84 248 2.6 6.1 0.00 0.17 0.01 59 1015.0
20240612150755 84 219 1.7 6.1 0.00 0.17 0.01 59 1015.0
20240612150256 84 202 0.9 5.2 0.00 0.17 0.01 60 1015.0
20240612145755 84 159 3.5 5.2 0.00 0.17 0.01 60 1015.0
20240612145254 84 190 2.6 5.2 0.00 0.17 0.01 61 1014.9
20240612145055 83 148 1.7 3.5 0.00 0.17 0.01 62 1014.9
20240612144253 83 151 1.7 4.3 0.00 0.17 0.01 62 1015.0
20240612143753 82 188 1.7 4.3 0.00 0.17 0.01 63 1014.9
20240612143253 82 65 2.6 4.3 0.00 0.17 0.01 62 1014.8
20240612142752 82 93 0.9 4.3 0.00 0.17 0.01 63 1014.8
20240612142253 81 171 2.6 5.2 0.00 0.17 0.01 64 1014.8
20240612141753 81 121 3.5 5.2 0.00 0.17 0.01 64 1014.7
20240612141252 81 154 0.9 6.1 0.00 0.17 0.01 65 1014.8
20240612140834 80 217 1.7 8.7 0.00 0.17 0.01 66 1014.7
20240612140056 80 90 3.5 7.8 0.00 0.17 0.01 65 1014.7
20240612135252 80 99 3.5 6.1 0.01 0.17 0.01 66 1014.7
20240612134753 80 124 3.5 7.8 0.01 0.17 0.01 67 1014.6
20240612134251 80 92 4.3 7.8 0.01 0.17 0.01 67 1014.6
20240612133752 80 107 1.7 5.2 0.01 0.17 0.01 67 1014.6
20240612133252 79 102 2.6 4.3 0.01 0.17 0.01 67 1014.5
20240612132751 79 149 1.7 4.3 0.01 0.17 0.01 68 1014.4
20240612132251 79 116 1.7 4.3 0.01 0.17 0.01 69 1014.3
20240612131752 78 125 1.7 5.2 0.01 0.17 0.01 69 1014.4
20240612131251 78 72 2.6 5.2 0.01 0.17 0.01 70 1014.3
20240612130751 78 117 2.6 4.3 0.01 0.17 0.01 70 1014.2
20240612130251 78 137 1.7 3.5 0.01 0.17 0.01 72 1014.2
20240612125751 77 158 2.6 3.5 0.01 0.17 0.01 72 1014.1
20240612125250 77 162 1.7 2.6 0.00 0.16 0.00 72 1014.1
20240612124750 77 109 0.9 2.6 0.00 0.16 0.00 73 1014.1
20240612124250 76 103 0.9 2.6 0.00 0.16 0.00 74 1014.0
20240612123752 76 176 0.0 2.6 0.00 0.16 0.00 75 1014.0
20240612123250 76 127 0.9 2.6 0.00 0.16 0.00 75 1014.0
20240612122751 75 147 0.9 3.5 0.00 0.16 0.00 76 1014.0
20240612122249 75 93 0.0 3.5 0.00 0.16 0.00 77 1014.1
20240612121749 75 152 0.9 2.6 0.00 0.16 0.00 78 1014.0
20240612121529 75 173 0.0 2.6 0.00 0.16 0.00 78 1014.0
20240612120749 75 147 0.9 2.6 0.00 0.16 0.00 78 1014.0
20240612120249 75 158 1.7 2.6 0.00 0.16 0.00 78 1014.0
20240612115749 75 168 1.7 2.6 0.00 0.16 0.00 78 1014.0
20240612115249 75 141 1.7 2.6 0.00 0.16 0.00 77 1013.9
20240612114749 75 118 0.0 3.5 0.00 0.16 0.00 77 1014.0
20240612114548 75 118 1.7 4.3 0.00 0.16 0.00 77 1013.8
20240612113823 75 114 1.7 4.3 0.00 0.16 0.00 76 1013.8
20240612113057 75 87 2.6 6.1 0.00 0.16 0.00 76 1013.7
20240612112553 75 106 3.5 6.1 0.00 0.16 0.00 76 1013.8
20240612111748 75 131 3.5 5.2 0.00 0.16 0.00 76 1013.7
20240612111249 75 118 2.6 3.5 0.00 0.16 0.00 76 1013.8
20240612110748 75 96 1.7 3.5 0.00 0.16 0.00 76 1013.9
20240612110547 75 86 1.7 3.5 0.00 0.16 0.00 76 1013.8
20240612105749 75 80 1.7 3.5 0.00 0.16 0.00 76 1013.7
20240612105248 75 86 1.7 4.3 0.00 0.16 0.00 76 1013.8
20240612104747 75 111 1.7 4.3 0.00 0.16 0.00 76 1013.7
20240612104247 75 103 1.7 3.5 0.00 0.16 0.00 76 1013.7
20240612103748 75 79 1.7 4.3 0.00 0.16 0.00 76 1013.7
20240612103540 75 123 1.7 4.3 0.00 0.16 0.00 77 1013.7
20240612103051 75 127 1.7 3.5 0.00 0.16 0.00 78 1013.7
20240612102247 75 118 0.9 2.6 0.00 0.16 0.00 79 1013.6
20240612101747 75 94 0.9 1.7 0.00 0.16 0.00 79 1013.6
20240612101247 75 87 0.9 2.6 0.00 0.16 0.00 79 1013.6
20240612100746 75 87 0.0 2.6 0.00 0.16 0.00 79 1013.6
20240612100247 75 87 0.9 2.6 0.00 0.16 0.00 79 1013.6
20240612095747 75 87 1.7 3.5 0.00 0.16 0.00 79 1013.6
20240612095247 75 80 1.7 3.5 0.00 0.16 0.00 79 1013.4
20240612094747 75 72 1.7 3.5 0.00 0.16 0.00 79 1013.4
20240612094247 75 82 1.7 3.5 0.00 0.16 0.00 80 1013.3
20240612093748 75 85 1.7 3.5 0.00 0.16 0.00 80 1013.3
20240612093246 75 75 1.7 3.5 0.00 0.16 0.00 80 1013.4
20240612092746 75 80 1.7 5.2 0.00 0.16 0.00 80 1013.3
20240612092246 75 44 1.7 6.1 0.00 0.16 0.00 79 1013.3
20240612091746 76 83 4.3 6.1 0.00 0.16 0.00 80 1013.2
20240612091245 75 49 3.5 5.2 0.00 0.16 0.00 79 1013.3
20240612090746 75 66 3.5 5.2 0.00 0.16 0.00 79 1013.2
20240612090245 75 66 2.6 4.3 0.00 0.16 0.00 79 1013.1
20240612085745 75 82 2.6 5.2 0.00 0.16 0.00 79 1013.1
20240612085245 75 82 2.6 5.2 0.00 0.16 0.00 80 1013.0
20240612084748 76 85 1.7 4.3 0.00 0.16 0.00 81 1013.0
20240612084244 76 69 0.9 1.7 0.00 0.16 0.00 81 1013.1
20240612083747 76 69 0.9 2.6 0.00 0.16 0.00 81 1013.2
20240612083527 76 69 0.9 2.6 0.00 0.16 0.00 81 1013.2
20240612082817 76 69 0.9 2.6 0.00 0.16 0.00 81 1013.3
20240612081745 76 58 1.7 3.5 0.00 0.16 0.00 80 1013.0
20240612081245 76 52 1.7 3.5 0.00 0.16 0.00 81 1013.2
20240612080743 76 47 1.7 3.5 0.00 0.16 0.00 81 1013.2
20240612080245 76 47 1.7 3.5 0.00 0.16 0.00 79 1013.2
20240612075743 76 65 1.7 2.6 0.00 0.16 0.00 80 1013.2
20240612075527 76 72 0.9 1.7 0.00 0.16 0.00 81 1013.2
20240612074744 76 72 0.9 1.7 0.00 0.16 0.00 82 1013.2
20240612074245 76 72 0.0 2.6 0.00 0.16 0.00 82 1013.3
20240612073745 76 72 0.9 2.6 0.00 0.16 0.00 82 1013.2
20240612073531 76 54 0.9 2.6 0.00 0.16 0.00 82 1013.3
20240612072743 76 41 1.7 2.6 0.00 0.16 0.00 82 1013.4
20240612072243 76 41 1.7 2.6 0.00 0.16 0.00 82 1013.3
20240612071743 76 41 0.9 2.6 0.00 0.16 0.00 82 1013.4
20240612071246 76 41 1.7 4.3 0.00 0.16 0.00 82 1013.4
20240612070745 76 41 1.7 4.3 0.00 0.16 0.00 81 1013.3
20240612070542 76 39 0.0 2.6 0.00 0.16 0.00 82 1013.3
20240612065743 76 39 1.7 2.6 0.00 0.16 0.00 82 1013.3
20240612065244 76 39 0.9 3.5 0.00 0.16 0.00 82 1013.2
20240612064742 77 39 1.7 3.5 0.00 0.16 0.00 82 1013.3
20240612064531 77 39 1.7 3.5 0.00 0.16 0.00 81 1013.4
20240612063744 77 39 1.7 3.5 0.00 0.16 0.00 81 1013.3
20240612063241 77 39 1.7 3.5 0.00 0.16 0.00 81 1013.4
20240612062743 77 39 0.9 1.7 0.00 0.16 0.00 82 1013.4
20240612062243 77 39 0.9 1.7 0.00 0.16 0.00 81 1013.4
20240612061742 77 39 0.0 2.6 0.00 0.16 0.00 82 1013.3
20240612061241 77 39 0.9 5.2 0.00 0.16 0.00 82 1013.4
20240612060742 77 38 1.7 5.2 0.00 0.16 0.00 81 1013.4
20240612060327 77 34 3.5 5.2 0.00 0.16 0.00 82 1013.4
20240612055552 76 52 2.6 4.3 0.00 0.16 0.00 83 1013.3
20240612054741 76 52 3.5 4.3 0.00 0.16 0.00 84 1013.4
20240612054538 76 120 0.9 2.6 0.00 0.16 0.00 84 1013.4
20240612053742 76 121 0.0 1.7 0.00 0.16 0.00 84 1013.5
20240612053240 76 121 0.0 1.7 0.00 0.16 0.00 84 1013.5
20240612052740 76 123 0.0 1.7 0.00 0.16 0.00 85 1013.5
20240612052241 76 123 0.0 0.9 0.00 0.16 0.00 85 1013.5
20240612051740 76 123 0.0 0.9 0.00 0.16 0.00 85 1013.6